Pagosa Springs, CO

12:40 PM MDT on April 24, 2017 (GMT -0600)
Pagosa Springs

Weather History for KPSO - January, 2014

Change the Weather History Date:

Wednesday, January 15, 2014

  Actual Average (KE33) Record (KE33)
Temperature  
Mean Temperature 26 °F -  
Max Temperature 41 °F 36 °F 55 °F (2000)
Min Temperature 11 °F 18 °F 3 °F (2008)
Degree Days  
Heating Degree Days 39    
Moisture  
Dew Point 9 °F    
Average Humidity 55    
Maximum Humidity 76    
Minimum Humidity 28    
Precipitation  
Precipitation 0.00 in - - ()
Sea Level Pressure  
Sea Level Pressure 30.33 in    
Wind  
Wind Speed 1 mph (SSW)    
Max Wind Speed 5 mph    
Max Gust Speed -    
Visibility 10 miles    
Events      
Averages and records for this station are not official NWS values.
T = Trace of Precipitation, MM = Missing Value Source: NWS Daily Summary

Daily Weather History Graph

Daily Weather History Graph

Search for Another Location

Airport or City:

Trip Planner

Search our weather history database for the weather conditions in past years. The results will help you decide how hot, cold, wet, or windy it might be!

Date:

Astronomy

Jan. 15, 2014 Rise Set
Actual Time 7:21 AM MST 5:14 PM MST
Civil Twilight 6:52 AM MST 5:43 PM MST
Nautical Twilight 6:20 AM MST 6:15 PM MST
Astronomical Twilight 5:49 AM MST 6:46 PM MST
Moon 5:13 PM MST (1/15) 6:40 AM MST (1/15)
Length of Visible Light 10h 50m
Length of Day
9h 53m
Full, 100% of the Moon is Illuminated
Jan 15
Full
Jan 15
Full
Jan 23
Last Quarter
Jan 30
New
Feb 6
First Quarter

Hourly Weather History & Observations

Time (MST) Temp. Windchill Dew Point Humidity Pressure Visibility Wind Dir Wind Speed Gust Speed Precip Events Conditions
12:15 AM 18.5 °F - 5.7 °F 58% 30.41 in 10.0 mi Calm Calm - N/A   Clear
12:35 AM 17.1 °F 10.0 °F 4.6 °F 58% 30.42 in 10.0 mi NNE 4.6 mph - N/A   Clear
12:55 AM 18.0 °F - 5.4 °F 58% 30.42 in 10.0 mi Calm Calm - N/A   Clear
1:15 AM 16.2 °F - 4.8 °F 61% 30.40 in 10.0 mi Calm Calm - N/A   Clear
1:35 AM 23.5 °F 19.1 °F 5.0 °F 45% 30.41 in 10.0 mi ENE 3.5 mph - N/A   Clear
1:55 AM 17.6 °F - 4.8 °F 57% 30.41 in 10.0 mi Calm Calm - N/A   Clear
2:15 AM 16.7 °F - 5.5 °F 62% 30.41 in 10.0 mi Calm Calm - N/A   Clear
2:35 AM 17.1 °F - 5.5 °F 61% 30.41 in 10.0 mi Calm Calm - N/A   Clear
2:55 AM 15.3 °F - 6.1 °F 67% 30.40 in 10.0 mi Calm Calm - N/A   Clear
3:15 AM 17.8 °F - 4.6 °F 57% 30.40 in 10.0 mi Calm Calm - N/A   Clear
3:35 AM 18.1 °F - 5.9 °F 59% 30.39 in 10.0 mi Calm Calm - N/A   Clear
3:55 AM 15.4 °F - 5.5 °F 65% 30.38 in 10.0 mi Calm Calm - N/A   Clear
4:15 AM 16.3 °F - 6.1 °F 64% 30.39 in 10.0 mi Calm Calm - N/A   Clear
4:35 AM 15.3 °F - 6.1 °F 67% 30.38 in 10.0 mi Calm Calm - N/A   Clear
4:55 AM 15.1 °F - 4.8 °F 64% 30.38 in 10.0 mi Calm Calm - N/A   Clear
5:15 AM 11.7 °F - 4.1 °F 72% 30.37 in 10.0 mi Calm Calm - N/A   Clear
5:35 AM 11.8 °F - 5.0 °F 74% 30.37 in 10.0 mi Calm Calm - N/A   Clear
5:55 AM 13.6 °F - 4.8 °F 68% 30.37 in 10.0 mi Calm Calm - N/A   Clear
6:15 AM 14.5 °F - 5.7 °F 68% 30.37 in 10.0 mi Calm Calm - N/A   Clear
6:35 AM 14.4 °F - 5.0 °F 66% 30.37 in 10.0 mi Calm Calm - N/A   Clear
6:55 AM 11.3 °F - 4.8 °F 75% 30.37 in 10.0 mi Calm Calm - N/A   Clear
7:15 AM 13.6 °F - 5.4 °F 70% 30.38 in 10.0 mi Calm Calm - N/A   Clear
7:35 AM 11.8 °F - 5.5 °F 76% 30.37 in 10.0 mi Calm Calm - N/A   Clear
7:55 AM 12.6 °F - 5.5 °F 74% 30.38 in 10.0 mi Calm Calm - N/A   Clear
8:15 AM 15.6 °F - 7.2 °F 69% 30.39 in 10.0 mi Calm Calm - N/A   Clear
8:35 AM 22.8 °F - 7.3 °F 52% 30.39 in 10.0 mi Calm Calm - N/A   Clear
8:55 AM 23.4 °F - 8.2 °F 53% 30.40 in 10.0 mi Calm Calm - N/A   Clear
9:15 AM 22.6 °F - 9.0 °F 56% 30.40 in 10.0 mi Calm Calm - N/A   Clear
9:35 AM 24.6 °F - 8.6 °F 51% 30.39 in 10.0 mi Calm Calm - N/A   Clear
9:55 AM 25.7 °F - 9.3 °F 50% 30.39 in 10.0 mi Calm Calm - N/A   Clear
10:15 AM 27.3 °F - 9.7 °F 48% 30.39 in 10.0 mi Calm Calm - N/A   Clear
10:35 AM 29.1 °F - 9.5 °F 44% 30.39 in 10.0 mi Calm Calm - N/A   Clear
10:55 AM 31.1 °F - 9.0 °F 40% 30.38 in 10.0 mi Calm Calm - N/A   Clear
11:15 AM 32.0 °F - 7.5 °F 36% 30.38 in 10.0 mi Calm Calm - N/A   Clear
11:35 AM 32.2 °F - 7.3 °F 35% 30.36 in 10.0 mi Calm Calm - N/A   Clear
11:55 AM 33.4 °F 30.4 °F 10.4 °F 38% 30.35 in 10.0 mi WSW 3.5 mph - N/A   Clear
12:15 PM 34.3 °F - 8.2 °F 34% 30.33 in 10.0 mi Calm Calm - N/A   Clear
12:55 PM 36.5 °F - 7.5 °F 30% 30.31 in 10.0 mi Calm Calm - N/A   Clear
1:15 PM 37.6 °F 34.0 °F 8.2 °F 30% 30.31 in 10.0 mi South 4.6 mph - N/A   Clear
1:35 PM 39.2 °F 37.0 °F 8.1 °F 28% 30.30 in 10.0 mi South 3.5 mph - N/A   Clear
1:55 PM 40.1 °F 38.0 °F 10.2 °F 29% 30.29 in 10.0 mi South 3.5 mph - N/A   Clear
2:15 PM 40.6 °F 37.5 °F 12.6 °F 32% 30.29 in 10.0 mi South 4.6 mph - N/A   Clear
2:35 PM 41.4 °F 39.4 °F 10.9 °F 29% 30.29 in 10.0 mi SSW 3.5 mph - N/A   Clear
2:55 PM 41.2 °F - 10.0 °F 28% 30.29 in 10.0 mi Calm Calm - N/A   Clear
3:15 PM 41.4 °F 39.4 °F 10.6 °F 28% 30.29 in 10.0 mi SW 3.5 mph - N/A   Clear
3:35 PM 41.4 °F 39.4 °F 11.1 °F 29% 30.28 in 10.0 mi SW 3.5 mph - N/A   Clear
3:55 PM 41.2 °F - 10.9 °F 29% 30.28 in 10.0 mi Calm Calm - N/A   Clear
4:15 PM 41.0 °F - 11.5 °F 30% 30.28 in 10.0 mi Calm Calm - N/A   Clear
4:35 PM 39.0 °F 36.8 °F 14.5 °F 37% 30.27 in 10.0 mi SSW 3.5 mph - N/A   Clear
4:55 PM 38.3 °F - 12.9 °F 35% 30.27 in 10.0 mi Calm Calm - N/A   Clear
5:15 PM 32.2 °F - 15.4 °F 50% 30.27 in 10.0 mi Calm Calm - N/A   Clear
5:35 PM 30.2 °F - 14.9 °F 53% 30.27 in 10.0 mi Calm Calm - N/A   Clear
5:55 PM 27.1 °F - 14.2 °F 58% 30.27 in 10.0 mi Calm Calm - N/A   Clear
6:15 PM 30.6 °F - 13.6 °F 50% 30.27 in 10.0 mi Calm Calm - N/A   Clear
6:35 PM 26.6 °F - 13.6 °F 58% 30.27 in 10.0 mi Calm Calm - N/A   Clear
6:55 PM 25.3 °F - 13.5 °F 61% 30.27 in 10.0 mi Calm Calm - N/A   Clear
7:15 PM 26.4 °F - 14.4 °F 60% 30.27 in 10.0 mi Calm Calm - N/A   Clear
7:35 PM 23.2 °F - 14.5 °F 70% 30.27 in 10.0 mi Calm Calm - N/A   Clear
7:55 PM 24.3 °F - 14.5 °F 67% 30.27 in 10.0 mi Calm Calm - N/A   Clear
8:15 PM 23.4 °F - 13.8 °F 67% 30.26 in 10.0 mi Calm Calm - N/A   Clear
8:35 PM 23.0 °F - 13.5 °F 67% 30.26 in 10.0 mi Calm Calm - N/A   Clear
8:55 PM 22.1 °F - 13.8 °F 70% 30.26 in 10.0 mi Calm Calm - N/A   Clear
9:15 PM 22.1 °F - 14.0 °F 71% 30.27 in 10.0 mi Calm Calm - N/A   Clear
9:35 PM 22.6 °F - 13.5 °F 68% 30.27 in 10.0 mi Calm Calm - N/A   Clear
9:55 PM 22.5 °F - 11.8 °F 64% 30.27 in 10.0 mi Calm Calm - N/A   Clear
10:15 PM 22.6 °F - 12.6 °F 65% 30.27 in 10.0 mi Calm Calm - N/A   Clear
10:35 PM 18.5 °F - 11.1 °F 73% 30.27 in 10.0 mi Calm Calm - N/A   Clear
10:55 PM 21.9 °F - 11.3 °F 64% 30.26 in 10.0 mi Calm Calm - N/A   Clear
11:15 PM 18.9 °F 13.7 °F 10.9 °F 71% 30.27 in 10.0 mi WSW 3.5 mph - N/A   Clear
11:35 PM 20.3 °F - 11.8 °F 70% 30.27 in 10.0 mi Calm Calm - N/A   Clear
11:55 PM 18.0 °F - 11.1 °F 75% 30.27 in 10.0 mi Calm Calm - N/A   Clear